Header
Bookmark and Share

Cherokee County, Georgia Weather Analysis


Narrow Your Investigation To Make Informed Decisions?

All | Demographics | Education | Geography | Economic | Housing | Government | Taxes | Weather | Crime

Weather Analysis

The enjoyment of the area in which you live is often affected by the weather. Each individual has a different view on what weather patterns will make them most happy. Some people love the seasons, others enjoy warm temperatures throughout the year while others may love the snow. The weather provided for Cherokee County, Georgia is based on over 50 years of data.

Tornado Information For Cherokee County, Georgia


On 04/11/1962, a tornado touched down 1.7 miles from the center of Cherokee County, Georgia. The tornado was rated a category 2 . There were 0 injuries and 0 fatalities. Damages ranged from $5,000 to $50,000.

On 05/07/1984, a tornado touched down 2.85 miles from the center of Cherokee County, Georgia. The tornado was rated a category 1 . There were 0 injuries and 0 fatalities. Damages ranged from $5,000 to $50,000.

On 04/03/2000, a tornado touched down 3.16 miles from the center of Cherokee County, Georgia. The tornado was rated a category 1 . There were 0 injuries and 0 fatalities. Damages ranged from less than $50.

On 05/06/2003, a tornado touched down 4.28 miles from the center of Cherokee County, Georgia. The tornado was rated a category 1 . There were 0 injuries and 0 fatalities.

On 03/21/1962, a tornado touched down 4.56 miles from the center of Cherokee County, Georgia. The tornado was rated a category 3 . There were 0 injuries and 0 fatalities. Damages ranged from $50,000-$500,000.



Storms In Cherokee County, Georgia

  Fatalities Injuries Property
Damage
Crop
Damage
Flooding        
07/11/2005, 05:15 am 0 0 $2M --
06/28/2005, 02:00 am 0 0 $25K --
09/16/2004, 04:45 pm 0 2 $1M --
07/13/2003, 06:50 pm 0 0 $250K --
05/06/2003, 01:13 pm 0 0 $5K --
06/30/2001, 06:53 pm 0 0 $58K --
06/28/2001, 09:35 pm 0 0 $200K --
06/27/2001, 09:30 pm 0 0 $400K --
01/26/1996, 10:00 pm 0 0 $10K --
         
Hail        
06/11/2007, 12:00 am 0 0 $200K --
04/03/2007, 12:00 am 0 0 $1M --
02/21/2005, 06:25 pm 0 0 $500K --
02/21/2005, 05:28 pm 0 0 $1M --
02/21/2005, 05:19 pm 0 0 $350K --
07/09/2001, 05:32 pm 0 0 $3K --
05/07/1998, 07:33 pm 0 0 $20K --
05/07/1998, 07:05 pm 0 0 $3K --
05/07/1998, 06:10 pm 0 0 $5K --
05/07/1998, 05:49 pm 0 0 $2K --
05/03/1998, 03:34 pm 0 0 $2K --
04/08/1998, 09:00 pm 0 0 $2K --
         
Lightning        
08/24/2007, 12:00 am 0 0 $200K --
07/10/2007, 12:00 am 0 0 $175K --
06/08/2007, 12:00 am 0 0 $25K --
04/04/2007, 01:26 am 0 0 $50K --
08/28/2006, 04:05 pm 0 0 $50K --
08/15/2006, 03:36 pm 0 0 $175K --
08/10/2006, 03:51 pm 0 0 $41K --
08/02/2006, 06:04 pm 0 0 $175K --
06/24/2006, 08:10 pm 0 0 $35K --
06/23/2006, 06:00 pm 0 0 $150K --
05/25/2006, 03:36 pm 0 0 $100K --
01/13/2006, 02:10 pm 0 0 $50K --
07/28/2005, 04:00 pm 0 0 $250K --
06/27/2005, 08:11 pm 0 0 $250K --
07/06/2004, 04:15 pm 0 1 $400K --
07/12/2003, 11:01 pm 0 0 $25K --
08/15/2002, 07:40 pm 0 1 -- --
06/06/2001, 05:00 pm 0 0 $250K --
02/22/2001, 03:45 am 0 0 $300K --
09/01/2000, 05:00 am 0 0 $200K --
08/20/2000, 08:55 pm 0 6 $30K --
08/10/2000, 11:15 pm 0 0 $1M --
08/10/2000, 09:30 pm 0 1 -- --
05/03/1998, 04:00 pm 0 0 $5K --
04/03/1998, 10:00 am 0 0 $20K --
01/01/1907, 12:00 am 0 0 $60K --
         
Thunderstorm Wind        
10/23/2007, 12:00 am 0 0 $10K --
09/14/2007, 12:00 am 0 0 $3K --
08/17/2007, 12:00 am 0 0 $2K --
07/01/2007, 12:00 am 0 0 $40K --
01/05/2007, 11:54 am 0 0 $75K --
06/02/2006, 07:55 pm 0 0 $200K --
04/08/2006, 02:52 am 0 0 $1K --
04/08/2006, 02:47 am 0 0 $1K --
04/08/2006, 01:25 am 0 0 $3K --
07/27/2005, 08:10 pm 0 0 $5K --
02/21/2005, 06:25 pm 0 0 $3K --
01/13/2005, 03:20 pm 0 0 $3K --
12/09/2004, 11:05 pm 0 0 $5K --
11/24/2004, 10:10 am 0 0 $5K --
11/24/2004, 09:39 am 0 0 $1K --
07/14/2004, 12:30 am 0 0 $5K --
07/14/2004, 12:15 am 0 0 $8K --
07/14/2004, 12:13 am 0 0 $5K --
07/06/2004, 01:45 pm 0 0 $5K --
09/27/2003, 03:58 pm 0 0 $1K --
08/04/2003, 08:30 pm 0 0 $5K --
07/22/2003, 12:00 pm 0 0 $20K --
07/17/2003, 03:30 am 1 0 $15K --
07/16/2003, 05:15 pm 0 0 $5K --
07/13/2003, 07:45 pm 0 0 $3K --
07/13/2003, 06:09 pm 0 0 $5K --
07/12/2003, 11:00 pm 0 0 $75K --
07/04/2003, 05:30 pm 0 0 $40K --
06/16/2003, 11:30 pm 0 0 $1K --
05/17/2003, 05:20 pm 0 0 $1K --
05/06/2003, 11:45 am 0 0 $2K --
05/06/2003, 11:00 am 0 0 $5K --
07/23/2002, 05:28 pm 0 0 $1K --
07/22/2002, 06:00 pm 0 0 $1K --
06/20/2002, 02:00 pm 0 0 $3K --
06/05/2002, 06:40 pm 0 0 $1K --
06/05/2002, 06:35 pm 0 0 $2K --
06/04/2002, 05:30 pm 0 0 $5K --
05/13/2002, 02:15 pm 0 0 $1K --
05/01/2002, 03:21 am 0 1 $1M --
05/01/2002, 03:00 am 0 0 $12M $50K
04/28/2002, 07:02 pm 0 0 $15K --
07/09/2001, 05:32 pm 0 0 $10K --
07/03/2001, 03:35 pm 0 0 $1K --
06/04/2001, 07:30 pm 0 0 $2K --
05/24/2001, 04:50 pm 0 0 $5K --
02/16/2001, 06:15 pm 0 0 $3K --
08/24/2000, 03:57 pm 0 0 $2K --
07/20/2000, 07:10 pm 0 0 $45K --
07/20/2000, 07:02 pm 0 0 $25K --
07/12/2000, 01:30 pm 0 0 $15K --
05/25/2000, 04:15 pm 0 0 $3K --
05/21/2000, 03:25 pm 0 0 $2K --
05/20/2000, 04:30 pm 0 0 $5K --
03/16/2000, 10:00 pm 0 0 $3K --
07/29/1999, 04:00 pm 0 0 $5K --
07/29/1999, 03:40 pm 0 0 $1K --
07/17/1999, 02:08 pm 0 0 $1K --
06/30/1999, 01:45 pm 0 0 $1K --
06/24/1999, 07:57 pm 0 0 $5K --
06/03/1999, 04:18 pm 0 0 $1K --
06/02/1999, 04:00 pm 0 0 $1K --
05/13/1999, 06:30 pm 0 0 $1K --
02/27/1999, 10:55 pm 0 0 $10K --
02/27/1999, 10:45 pm 0 0 $1K --
06/15/1998, 11:30 pm 0 0 $5K --
06/04/1998, 01:55 pm 0 0 $1K --
05/07/1998, 07:40 pm 0 0 $25K --
05/07/1998, 06:20 pm 0 0 $5K --
05/07/1998, 05:58 pm 0 0 $20K --
04/16/1998, 11:30 pm 0 0 $50K --
03/31/1998, 11:30 pm 0 3 $600K --
07/27/1997, 07:30 pm 0 0 $4K --
03/29/1997, 12:30 am 0 1 $30K --
03/05/1997, 05:30 pm 0 0 $1K --
03/05/1997, 05:26 pm 0 0 $1K --
03/03/1997, 06:01 am 0 0 $1K --
01/24/1997, 11:00 pm 0 0 $2K --
01/05/1997, 03:30 am 0 0 $20K --
05/27/1996, 07:45 pm 0 0 $100K --
07/04/1995, 05:00 pm 0 0 $10K --
07/03/1995, 08:00 pm 0 0 $300 --
06/26/1995, 05:15 pm 0 0 $1K --
06/11/1995, 07:07 pm 0 0 $1K --
06/11/1995, 06:57 pm 0 0 $1K --
02/27/1995, 07:27 pm 0 0 $204K $10K
08/16/1994, 04:35 pm 0 0 $1K --
06/29/1994, 08:55 am 0 0 $500K --
         



Tornados In Cherokee County, Georgia

    Length Width F-Scale Fatalities Injuries Property
Damage
Crop
Damage

Tornado

  2002-11-11 6 100 2 0 0 $2M --
  2002-11-11 12 100 2 0 0 $2M --
  2002-05-01 2 440 1 0 0 $3K --
  1997-04-22 1 50 -- 0 3 $100K $350K
  1994-06-29 2 50 -- 0 0 $50K --
  1993-02-21 1 50 1 0 1 $500K --
  1993-02-21 -- 30 -- 0 0 $500K --
  1985-04-05 5 100 2 0 0 $3M --
  1977-04-04 6 100 1 0 0 $250K --
  1977-03-30 2 100 2 0 4 $250K --
  1977-03-30 11 400 2 0 0 $250K --
  1975-03-13 1 100 1 0 0 $25K --
  1974-04-03 15 150 4 0 15 $3M --
  1974-04-03 3 150 4 2 25 $3M --
  1973-03-16 2 300 2 0 5 $250K --
  1965-04-12 2 50 1 0 0 $3K --
  1965-04-06 8 37 1 0 0 $25K --
  1913-01-01 1 20 2 0 2 $25K --



Hurricanes And Storms In Cherokee County, Georgia

  • Tropical Depression: FRANCES - September 2004 - Wind Speed: 25 Knots
  • Tropical Depression: DANNY - July 1997 - Wind Speed: 20 Knots



Back to Top

Do you want to research cherokee county, georgia? If you are considering a move, want to view where your friends live,
or just discovering a new place to travel, our data will interest you!

Use any data on this web site at your own risk. citymelt.com does not warrant or certify the correctness of data.